Location: Unnamed
(42.1164°N, 2.7652°E)
Time: 18:09:12
(UTC+02:00)

Hubble Space Telescope - Visible Passes

Search period start: 23 July 2021 00:00
Search period end: 02 August 2021 00:00
Orbit: 535 x 539 km, 28.5° (Epoch: 22 July)

Date Brightness Start Highest point End Pass type
(mag) Time Alt. Az. Time Alt. Az. Time Alt. Az.
24 Jul 3.0 22:45:27 10° SSW 22:45:59 11° S 22:45:59 11° S visible
25 Jul 2.8 22:34:10 10° SSW 22:35:43 12° S 22:35:43 12° S visible
26 Jul 2.8 22:22:59 10° SSW 22:24:37 12° S 22:25:22 12° SSE visible
27 Jul 2.9 22:11:53 10° SSW 22:13:29 12° S 22:14:56 10° SSE visible
28 Jul 2.9 22:00:54 10° SSW 22:02:22 12° S 22:03:50 10° SSE visible
29 Jul 3.0 21:50:03 10° SSW 21:51:15 11° S 21:52:26 10° S visible
30 Jul 3.1 21:39:32 10° SSW 21:40:06 10° S 21:40:41 10° S visible
